User: anonymous   Login
Location: Marseilles
(40.7010°N, 83.3930°W)
Time: 12:26:45
(UTC-05:00)
Language:

Cosmos 1459 Rocket - Orbit

View from above orbital plane
View from above orbital plane
View from above satellite
View from above satellite

Ground track
Ground track

The orbit data is extracted from the following two-line orbital elements,

1 14059U 83042B   17022.89863103 +.00000043 +00000-0 +27493-4 0  9992
2 14059 082.9726 169.7701 0041643 315.9870 043.7975 13.78575771695474
Epoch (UTC): 22 January 2017 21:34:01
Eccentricity: 0.0041643
inclination: 82.9726°
perigee height: 938 km
apogee height: 999 km
right ascension of ascending node: 169.7701°
argument of perigee: 315.9870°
revolutions per day: 13.78575771
mean anomaly at epoch: 43.7975°
orbit number at epoch: 69547

The dashed part of the orbit path shows where the satellite is in the earth's shadow,  

DLR